User: anonymous   Login
Location: Sundre
(51.7972°N, 114.6405°W)
Time: 14:13:39
(UTC-07:00)
Language:

QB50P2 - Orbit

View from above orbital plane
View from above orbital plane
View from above satellite
View from above satellite

Ground track
Ground track

The orbit data is extracted from the following two-line orbital elements,

1 40032U 14033Y   20027.20552664 +.00000186 +00000-0 +26022-4 0  9992
2 40032 097.9030 309.3339 0012929 048.4839 311.7484 14.88589374303829
Epoch (UTC): 27 January 2020 04:55:57
Eccentricity: 0.0012929
inclination: 97.9030°
perigee height: 593 km
apogee height: 611 km
right ascension of ascending node: 309.3339°
argument of perigee: 48.4839°
revolutions per day: 14.88589374
mean anomaly at epoch: 311.7484°
orbit number at epoch: 30382

The dashed part of the orbit path shows where the satellite is in the earth's shadow,  

DLR